TimeCDT,TemperatureF,Dew PointF,Humidity,Sea Level PressureIn,VisibilityMPH,Wind Direction,Wind SpeedMPH,Gust SpeedMPH,PrecipitationIn,Events,Conditions,WindDirDegrees,DateUTC
12:15 AM,75.2,57.2,53,30.01,10.0,South,9.2,-,N/A,,Clear,180,2013-08-22 05:15:00
12:35 AM,75.2,57.2,53,30.01,10.0,South,9.2,-,N/A,,Clear,180,2013-08-22 05:35:00
12:55 AM,75.2,57.2,53,30.02,10.0,South,6.9,-,N/A,,Clear,190,2013-08-22 05:55:00
1:15 AM,73.4,57.2,57,30.03,10.0,South,5.8,-,N/A,,Clear,180,2013-08-22 06:15:00
1:35 AM,73.4,57.2,57,30.02,10.0,South,5.8,-,N/A,,Clear,180,2013-08-22 06:35:00
1:55 AM,71.6,57.2,60,30.02,10.0,South,8.1,-,N/A,,Clear,170,2013-08-22 06:55:00
2:15 AM,71.6,57.2,60,30.01,10.0,South,6.9,-,N/A,,Clear,180,2013-08-22 07:15:00
2:35 AM,71.6,57.2,60,30.01,10.0,South,6.9,-,N/A,,Clear,190,2013-08-22 07:35:00
2:55 AM,71.6,57.2,60,30.01,10.0,South,6.9,-,N/A,,Clear,190,2013-08-22 07:55:00
3:15 AM,71.6,57.2,60,30.00,10.0,South,9.2,-,N/A,,Clear,190,2013-08-22 08:15:00
3:35 AM,73.4,57.2,57,30.01,10.0,South,8.1,-,N/A,,Clear,190,2013-08-22 08:35:00
3:55 AM,71.6,57.2,60,30.01,10.0,SSW,6.9,-,N/A,,Clear,200,2013-08-22 08:55:00
4:15 AM,73.4,55.4,53,30.02,10.0,SSW,6.9,-,N/A,,Clear,210,2013-08-22 09:15:00
4:35 AM,71.6,55.4,57,30.02,10.0,SSW,6.9,-,N/A,,Clear,210,2013-08-22 09:35:00
4:55 AM,71.6,55.4,57,30.02,10.0,SSW,8.1,-,N/A,,Clear,210,2013-08-22 09:55:00
5:15 AM,71.6,55.4,57,30.02,10.0,SSW,8.1,-,N/A,,Clear,210,2013-08-22 10:15:00
5:35 AM,71.6,55.4,57,30.02,10.0,SSW,8.1,-,N/A,,Clear,200,2013-08-22 10:35:00
5:55 AM,71.6,55.4,57,30.02,10.0,SSW,5.8,-,N/A,,Clear,200,2013-08-22 10:55:00
6:15 AM,71.6,55.4,57,30.02,10.0,SSW,4.6,-,N/A,,Clear,200,2013-08-22 11:15:00
6:35 AM,71.6,55.4,57,30.03,10.0,South,3.5,-,N/A,,Clear,180,2013-08-22 11:35:00
6:55 AM,71.6,55.4,57,30.04,10.0,SSE,3.5,-,N/A,,Clear,150,2013-08-22 11:55:00
7:15 AM,69.8,57.2,64,30.04,10.0,SSE,3.5,-,N/A,,Clear,160,2013-08-22 12:15:00
7:35 AM,69.8,57.2,64,30.05,10.0,East,4.6,-,N/A,,Clear,90,2013-08-22 12:35:00
7:55 AM,69.8,57.2,64,30.06,10.0,East,4.6,-,N/A,,Clear,80,2013-08-22 12:55:00
8:15 AM,69.8,57.2,64,30.07,10.0,East,4.6,-,N/A,,Clear,90,2013-08-22 13:15:00
8:35 AM,71.6,57.2,60,30.06,10.0,ESE,4.6,-,N/A,,Clear,120,2013-08-22 13:35:00
8:55 AM,73.4,59.0,61,30.06,10.0,SE,5.8,-,N/A,,Clear,130,2013-08-22 13:55:00
9:15 AM,75.2,60.8,61,30.05,10.0,SSE,6.9,-,N/A,,Clear,160,2013-08-22 14:15:00
9:35 AM,77.0,60.8,57,30.05,10.0,SSE,6.9,-,N/A,,Clear,160,2013-08-22 14:35:00
9:55 AM,78.8,60.8,54,30.04,10.0,South,8.1,-,N/A,,Clear,170,2013-08-22 14:55:00
10:15 AM,80.6,60.8,51,30.04,10.0,South,8.1,-,N/A,,Clear,180,2013-08-22 15:15:00
10:35 AM,82.4,60.8,48,30.04,10.0,South,6.9,-,N/A,,Clear,190,2013-08-22 15:35:00
10:55 AM,84.2,60.8,45,30.03,10.0,SW,9.2,-,N/A,,Clear,220,2013-08-22 15:55:00
11:15 AM,87.8,60.8,40,30.03,10.0,SSW,8.1,-,N/A,,Clear,210,2013-08-22 16:15:00
11:35 AM,87.8,60.8,40,30.03,10.0,SW,10.4,-,N/A,,Clear,220,2013-08-22 16:35:00
11:55 AM,89.6,62.6,40,30.01,10.0,South,10.4,-,N/A,,Clear,190,2013-08-22 16:55:00
12:15 PM,89.6,60.8,38,30.01,10.0,SSW,8.1,-,N/A,,Clear,210,2013-08-22 17:15:00
12:35 PM,91.4,60.8,36,30.01,10.0,SSW,10.4,-,N/A,,Clear,200,2013-08-22 17:35:00
12:55 PM,91.4,60.8,36,30.01,10.0,SSW,9.2,-,N/A,,Clear,200,2013-08-22 17:55:00
1:15 PM,93.2,60.8,34,30.00,10.0,South,9.2,-,N/A,,Clear,180,2013-08-22 18:15:00
1:35 PM,93.2,59.0,32,30.00,10.0,SSW,9.2,-,N/A,,Clear,200,2013-08-22 18:35:00
1:55 PM,93.2,57.2,30,30.00,10.0,South,8.1,-,N/A,,Clear,190,2013-08-22 18:55:00
2:15 PM,95.0,55.4,26,29.99,10.0,South,9.2,-,N/A,,Clear,180,2013-08-22 19:15:00
2:35 PM,95.0,55.4,26,29.99,10.0,South,9.2,-,N/A,,Clear,180,2013-08-22 19:35:00
2:55 PM,95.0,55.4,26,29.99,10.0,South,8.1,-,N/A,,Clear,170,2013-08-22 19:55:00
3:15 PM,95.0,55.4,26,29.99,10.0,South,5.8,-,N/A,,Clear,190,2013-08-22 20:15:00
3:35 PM,95.0,55.4,26,29.98,10.0,South,9.2,-,N/A,,Clear,180,2013-08-22 20:35:00
3:55 PM,95.0,55.4,26,29.98,10.0,South,9.2,-,N/A,,Clear,170,2013-08-22 20:55:00
4:15 PM,95.0,53.6,25,29.98,10.0,South,9.2,-,N/A,,Clear,170,2013-08-22 21:15:00
4:35 PM,95.0,55.4,26,29.97,10.0,South,8.1,-,N/A,,Clear,170,2013-08-22 21:35:00
4:55 PM,93.2,53.6,26,29.97,10.0,South,8.1,-,N/A,,Clear,170,2013-08-22 21:55:00
5:15 PM,93.2,55.4,28,29.97,10.0,South,8.1,-,N/A,,Clear,170,2013-08-22 22:15:00
5:35 PM,93.2,55.4,28,29.97,10.0,South,6.9,-,N/A,,Clear,180,2013-08-22 22:35:00
5:55 PM,93.2,55.4,28,29.97,10.0,South,6.9,-,N/A,,Clear,170,2013-08-22 22:55:00
6:15 PM,91.4,57.2,31,29.97,10.0,SSE,8.1,-,N/A,,Clear,160,2013-08-22 23:15:00
6:35 PM,91.4,59.0,34,29.97,10.0,SSE,8.1,-,N/A,,Clear,150,2013-08-22 23:35:00
6:55 PM,89.6,60.8,38,29.97,10.0,SSE,9.2,-,N/A,,Clear,150,2013-08-22 23:55:00
7:15 PM,89.6,60.8,38,29.97,10.0,SSE,9.2,-,N/A,,Clear,150,2013-08-23 00:15:00
7:35 PM,87.8,60.8,40,29.97,10.0,SSE,8.1,-,N/A,,Clear,150,2013-08-23 00:35:00
7:55 PM,84.2,60.8,45,29.98,10.0,SSE,6.9,-,N/A,,Clear,150,2013-08-23 00:55:00
8:15 PM,84.2,60.8,45,29.98,10.0,SSE,8.1,-,N/A,,Clear,150,2013-08-23 01:15:00
8:35 PM,82.4,60.8,48,29.99,10.0,SE,5.8,-,N/A,,Clear,140,2013-08-23 01:35:00
8:55 PM,78.8,60.8,54,30.00,10.0,SE,6.9,-,N/A,,Clear,130,2013-08-23 01:55:00
9:15 PM,78.8,60.8,54,30.00,10.0,SE,6.9,-,N/A,,Clear,130,2013-08-23 02:15:00
9:35 PM,78.8,60.8,54,30.01,10.0,SSE,6.9,-,N/A,,Clear,150,2013-08-23 02:35:00
9:55 PM,78.8,60.8,54,30.01,10.0,SE,6.9,-,N/A,,Clear,140,2013-08-23 02:55:00
10:15 PM,78.8,60.8,54,30.02,7.0,SE,6.9,-,N/A,,Clear,140,2013-08-23 03:15:00
10:35 PM,77.0,60.8,57,30.02,10.0,SSE,6.9,-,N/A,,Clear,150,2013-08-23 03:35:00
10:55 PM,75.2,60.8,61,30.03,10.0,SSE,6.9,-,N/A,,Clear,160,2013-08-23 03:55:00
11:15 PM,75.2,62.6,65,30.03,10.0,SSE,6.9,-,N/A,,Clear,150,2013-08-23 04:15:00
11:35 PM,75.2,62.6,65,30.03,10.0,SSE,6.9,-,N/A,,Clear,150,2013-08-23 04:35:00
11:55 PM,75.2,62.6,65,30.04,10.0,SSE,6.9,-,N/A,,Clear,150,2013-08-23 04:55:00